Location: Antioch Baptist Church
(32.6696°N, 85.7327°W)
Time: 20:07:41
(UTC+00:00)

SPOT 1/Viking Rocket - Pass Details

Date: 14 July 2020
Orbit: 778 x 793 km, 98.5° (Epoch: 13 August)

Event Time Altitude Azimuth Distance (km) Brightness Sun altitude
Exits shadow 03:26:28 61° 216° (SW) 885 3.6 -25.9°
Maximum altitude 03:27:06 68° 258° (WSW) 843 3.7 -26.0°
Drops below altitude 10° 03:32:15 10° 341° (NNW) 2,346 6.9 -26.7°
Sets 03:34:36 0° 345° (NNW) 3,281 7.9 -27.0°
